Location: Hanover
(52.3667°N, 9.7167°E)
Time: 10:31:16
(UTC+01:00)

Envisat - Visible Passes

Search period start: 09 November 2025 00:00
Search period end: 19 November 2025 00:00
Orbit: 761 x 763 km, 98.4° (Epoch: 08 November)

Date Brightness Start Highest point End Pass type
(mag) Time Alt. Az. Time Alt. Az. Time Alt. Az.
09 Nov 5.2 03:54:33 10° N 03:55:30 16° N 03:55:30 16° N visible
09 Nov 5.2 05:35:34 10° NNW 05:35:37 10° NNW 05:35:37 10° NNW visible
10 Nov 5.6 03:16:42 10° NNE 03:17:12 13° NNE 03:17:12 13° NNE visible
10 Nov 5.1 04:56:31 10° N 04:57:20 13° NNW 04:57:20 13° NNW visible
11 Nov 5.2 04:18:12 10° N 04:19:00 14° N 04:19:00 14° N visible
12 Nov 5.5 03:40:11 10° N 03:40:42 13° N 03:40:42 13° N visible
12 Nov 5.2 05:20:36 10° NNW 05:20:50 11° NNW 05:20:50 11° NNW visible
13 Nov 5.2 04:41:58 10° N 04:42:32 13° N 04:42:32 13° N visible
14 Nov 5.4 04:03:47 10° N 04:04:14 12° N 04:04:14 12° N visible
15 Nov 5.8 03:25:52 10° NNE 03:25:56 10° NNE 03:25:56 10° NNE visible
15 Nov 5.3 05:05:53 10° NNW 05:06:03 11° NNW 05:06:03 11° NNW visible
16 Nov 5.4 04:27:28 10° N 04:27:45 11° N 04:27:45 11° N visible
17 Nov 5.7 03:49:23 10° N 03:49:27 10° N 03:49:27 10° N visible
18 Nov 5.4 04:51:16 10° N 04:51:17 10° N 04:51:17 10° N visible
